User: anonymous   Login
Location: Miami, Florida
(25.6830°N, 80.1700°W)
Time: 22:56:57
(UTC-04:00)
Language:

Tiangong 1 - Orbit

View from above orbital plane
View from above orbital plane
View from above satellite
View from above satellite

Ground track
Ground track

The orbit data is extracted from the following two-line orbital elements,

1 37820U 11053A   17324.33364583  .00057074  94610-5  17107-3 0  9999
2 37820  42.7556 316.2642 0017669 118.6389  95.1207 15.91937926352736
Epoch (UTC): 20 November 2017 08:00:27
Eccentricity: 0.0017669
inclination: 42.7556°
perigee height: 285 km
apogee height: 308 km
right ascension of ascending node: 316.2642°
argument of perigee: 118.6389°
revolutions per day: 15.91937926
mean anomaly at epoch: 95.1207°
orbit number at epoch: 35273

The dashed part of the orbit path shows where the satellite is in the earth's shadow,  

DLR